Starlink 31474

operational
NORAD ID: 59304 Int'l Des: 2024-056 Owner: SPXS Country: US Constellation: starlink
LEOCIRCULAR

Starlink 31474について

説明を読み込み中...

リアルタイム位置

3D地球を読み込み中...

次回通過

高度履歴

Altitude vs Time

uPlot chart will show altitude changes over time

軌道要素

1 59304U 24056J 25306.05775356 -.00000321 00000-0 -21338-5 0 9992
2 59304 43.0003 224.6715 0001731 271.7989 88.2664 15.27570273 91716
Epoch: Nov 2, 2025 • Age: 29 hours

現在のステータス

高度 482.7 km
速度 7.63 km/s
衛星直下点 14.66°N, 115.95°W
打ち上げ日 Mar 24, 2024
運用期間 1.6 years
タイプ internet

技術仕様

分類 Payload
質量 730.00 kg
乾燥質量 700.00 kg
総質量 730.00 kg
長さ 0.30 m
直径 4.10 m
スパン 29.00 m
形状 Box + pan
製造者 SPXS
バスタイプ Starlink V2M
フェーズステータス In Orbit
所有者/国 SPXS/US

大規模コンステレーション

Loading constellations...